Vertical_Velocity
-0 1 1 0 0 -0 -1 -1 -1 -1 -1 -0 -1 -1 -1 -0 0 -1 -1 -2 -1 -1 -2 -1 -2 -2 -1 -1 -2 -2 -0 -1 -2 -2 -1 -2 -2 -1
1 -1 1 -0 0 1 1 0 -1 -0 -1 1 -1 -0 -1 -2 -1 -1 -2 -1 -1 -2 -2 -4 -4 -3 -1 1 -1 -3 -2 -1 -0 0 -0 -3 -2 -0
2 1 -1 2 0 -1 2 1 0 -1 -1 -1 -2 -2 -0 -1 -2 -2 -1 -1 -3 -3 -3 -3 -3 -2 -0 -1 -3 -3 -2 -2 -0 0 -0 -2 -1 -1
2 0 -1 -1 0 1 1 2 2 0 1 -1 -2 -3 -3 -2 -0 1 0 -1 -2 -4 -4 -5 -4 -3 -1 -2 -3 -2 -2 -2 0 -1 -2 -1 -0 -0
-7 -3 0 -1 -1 -2 -3 1 1 2 1 0 0 -1 -1 -1 -4 -4 -1 -3 -3 -4 -6 -5 -4 -5 -4 -2 -2 -2 -4 -2 -1 -2 -2 0 0 -0
9 3 -0 -0 1 0 -2 -2 2 2 2 1 -1 -0 -1 -2 -2 1 -2 -3 -3 -5 -6 -7 -6 -6 -3 -3 -3 -3 1 -1 -2 -3 -3 1 0 1
-3 1 5 -0 1 1 -2 -1 3 0 2 1 -1 -2 -1 -1 -1 -3 -1 2 -2 -1 0 -4 -0 -2 -4 -8 -7 -3 -0 -2 -1 -4 -3 -0 1 1
2 3 3 -1 -1 2 0 -3 1 1 -2 2 -2 -3 -3 -2 -3 -2 -2 -1 -1 -2 -1 -2 -2 -4 -6 -5 -3 -2 -2 -2 -3 -5 -1 0 -2 0
4 1 2 -1 -3 -1 0 -1 -1 -0 -2 -1 -1 -0 -3 -2 -3 -2 -4 -3 -4 -7 -3 -1 -1 -3 -5 -4 -4 -3 -2 -4 -4 -2 -1 -1 -1 0
2 2 3 -0 -0 -2 1 1 -1 -2 -1 1 -1 -1 -3 -3 -3 -1 -3 -1 0 -5 -8 -7 -4 -2 2 -5 -2 -2 -5 -6 -4 -1 -0 -0 -2 -1
2 6 4 1 0 1 0 -0 -0 -1 -3 -0 0 -1 -3 -3 -5 -1 -3 -3 1 -1 -4 -5 -9 -6 1 2 -3 -3 -5 -6 -2 -1 -1 -2 -2 -0
4 4 1 -1 2 1 1 -0 1 -3 -4 -0 -2 -0 -1 -3 -2 -3 -1 -2 -2 1 -8 -4 -1 -10 -4 7 4 -4 -3 -6 -4 -3 -2 -2 -2 0
0 -1 1 2 -0 -3 -0 1 -0 -1 -2 -2 -1 -1 -3 -3 -3 -5 -4 -5 -4 -2 -9 -7 1 -3 -4 -16 9 -2 -3 -0 -4 -3 -4 -3 -1 -4
1 0 -2 0 1 0 -2 1 -2 2 -0 -1 -0 -2 -1 -1 -4 -4 -3 -6 -3 -2 -3 -6 -4 -5 -4 -3 -6 6 -2 -2 -3 -3 -0 -2 -3 -1
-2 3 1 2 1 1 -0 -3 0 -1 -0 -1 -1 -2 -2 -3 -1 -2 -3 -2 -3 -3 -4 -3 -3 -3 -3 -4 -6 -2 -5 8 -2 -1 2 -1 -3 -1
1 1 1 1 1 -0 -1 0 -0 -2 1 -1 -0 -1 -3 -2 -1 -1 -1 -0 -1 0 -3 -5 -3 -3 -0 -4 -6 -3 -3 -5 -0 -3 -0 -1 -5 -6
-1 -1 -1 1 1 1 -0 0 0 0 -0 -1 -1 -1 -1 -1 -2 -1 -1 -0 -1 -0 2 -1 -4 -3 -4 -5 0 -3 -1 2 -2 -3 -3 -0 -1 -4
-3 1 1 1 1 1 0 -0 0 -0 -2 -1 -1 0 -0 -2 -1 -3 -4 -3 -2 -3 -3 -4 -2 2 4 5 -6 -5 -1 -3 -1 0 -4 -5 3 -2
-0 0 2 0 3 1 3 2 1 -1 -0 1 -0 -1 -1 -1 -2 -0 -2 -2 -1 -3 -2 -4 -6 -8 -5 -2 6 0 -10 -2 -3 1 -2 -5 -1 5
-0 -0 3 -0 4 2 3 2 1 0 1 1 1 -1 -1 -1 -1 -1 -1 -2 -1 -0 1 -2 -5 -7 -7 -7 -8 8 -1 -7 -4 -3 -1 -2 -3 0
-1 4 3 2 2 1 1 1 2 -1 -2 -1 -0 -2 -3 -3 -2 -2 -2 -2 -3 -0 3 3 0 -4 -4 -4 -6 -1 6 0 -8 -10 -1 -4 -2 4
3 2 -0 3 1 1 2 1 1 1 1 0 1 -2 -2 -4 -2 -3 -4 -2 -0 -2 -2 -0 -1 -4 -1 -5 -4 -5 -4 3 2 -2 -3 -7 -8 -1
1 2 1 3 3 4 3 2 2 2 0 0 0 1 -1 -1 -2 -3 -3 -2 -2 -3 -2 1 -0 -3 -3 -3 -7 -5 -4 -2 -4 0 9 -5 -5 -5
Height
3125 3125 3126 3127 3127 3128 3128 3128 3128 3128 3128 3129 3130 3130 3129 3128 3128 3127 3126 3124 3123 3122 3120 3119 3117 3115 3113 3110 3108 3105 3102 3102 3102 3102 3103 3102 3103 3101
3118 3119 3119 3120 3121 3122 3122 3123 3123 3123 3123 3123 3124 3124 3124 3123 3122 3121 3120 3119 3118 3116 3115 3113 3111 3109 3106 3103 3100 3097 3095 3094 3093 3093 3094 3095 3096 3096
3110 3112 3113 3114 3115 3115 3116 3117 3117 3117 3117 3117 3117 3117 3117 3117 3116 3115 3114 3113 3112 3110 3108 3107 3105 3103 3099 3095 3092 3090 3088 3085 3084 3084 3085 3086 3088 3089
3102 3104 3105 3107 3108 3109 3109 3109 3110 3110 3110 3110 3110 3111 3111 3110 3109 3108 3108 3107 3105 3103 3101 3099 3097 3095 3093 3089 3085 3083 3080 3078 3078 3076 3076 3077 3078 3080
3094 3095 3097 3098 3099 3100 3101 3102 3102 3102 3103 3103 3103 3103 3103 3103 3102 3101 3100 3099 3098 3096 3094 3093 3090 3087 3085 3082 3078 3076 3073 3072 3071 3069 3069 3069 3070 3071
3084 3087 3088 3089 3090 3091 3092 3094 3094 3094 3095 3095 3095 3095 3095 3095 3094 3094 3093 3091 3089 3088 3086 3084 3081 3078 3076 3073 3070 3068 3067 3066 3064 3063 3061 3061 3062 3062
3075 3077 3078 3080 3082 3083 3084 3085 3086 3086 3087 3087 3087 3086 3086 3086 3085 3085 3085 3084 3081 3081 3079 3075 3074 3070 3068 3066 3062 3059 3058 3058 3058 3056 3054 3054 3055 3055
3066 3068 3069 3071 3073 3074 3075 3076 3078 3078 3080 3080 3079 3078 3078 3077 3076 3076 3075 3075 3074 3072 3072 3067 3066 3062 3059 3058 3055 3052 3051 3051 3050 3048 3047 3048 3048 3049
3056 3058 3060 3062 3064 3065 3066 3068 3069 3071 3072 3072 3071 3071 3070 3069 3068 3067 3066 3065 3064 3060 3061 3061 3058 3056 3051 3051 3048 3046 3044 3044 3043 3042 3040 3041 3041 3043
3047 3049 3051 3052 3055 3057 3059 3060 3061 3063 3064 3065 3064 3063 3063 3061 3060 3060 3058 3058 3057 3054 3051 3053 3049 3050 3047 3042 3043 3039 3037 3036 3035 3035 3035 3034 3035 3036
3037 3039 3041 3044 3047 3049 3051 3052 3053 3054 3054 3055 3056 3055 3055 3054 3053 3053 3052 3050 3050 3049 3045 3043 3043 3041 3041 3038 3036 3034 3030 3028 3028 3027 3027 3028 3028 3030
3027 3029 3032 3036 3039 3042 3044 3045 3046 3046 3046 3047 3048 3047 3047 3046 3045 3044 3044 3043 3042 3042 3038 3037 3036 3031 3033 3032 3031 3027 3025 3022 3021 3020 3020 3020 3021 3023
3018 3021 3025 3029 3031 3033 3035 3036 3038 3038 3039 3040 3040 3040 3039 3039 3039 3038 3037 3037 3036 3034 3030 3028 3028 3026 3024 3024 3024 3022 3020 3016 3015 3014 3014 3013 3014 3015
3011 3015 3018 3021 3024 3026 3027 3029 3030 3031 3032 3033 3033 3034 3034 3033 3032 3032 3031 3030 3029 3028 3026 3023 3022 3020 3018 3017 3016 3016 3013 3011 3008 3007 3009 3008 3007 3008
3005 3009 3011 3014 3016 3018 3020 3021 3023 3024 3025 3027 3028 3028 3028 3028 3027 3027 3027 3025 3024 3022 3020 3018 3016 3015 3013 3010 3009 3008 3005 3007 3004 3002 3003 3001 3001 3002
2998 3001 3004 3006 3008 3010 3012 3014 3016 3018 3020 3021 3023 3023 3024 3024 3024 3024 3023 3022 3021 3019 3016 3013 3011 3010 3009 3006 3004 3002 3000 2998 2998 2996 2997 2997 2995 2995
2991 2992 2995 2998 3000 3003 3005 3008 3010 3012 3015 3017 3018 3019 3020 3020 3020 3020 3020 3019 3018 3017 3015 3011 3008 3006 3004 3002 3001 2998 2996 2994 2991 2990 2991 2992 2990 2989
2981 2984 2987 2990 2993 2996 2999 3002 3005 3007 3009 3011 3013 3014 3015 3016 3016 3016 3016 3015 3014 3012 3011 3008 3006 3004 3003 3000 2995 2994 2991 2988 2987 2986 2985 2984 2986 2984
2972 2976 2979 2982 2986 2989 2992 2996 2999 3001 3004 3006 3007 3008 3009 3010 3011 3011 3011 3010 3009 3007 3006 3003 3001 2999 2998 2997 2995 2989 2986 2983 2982 2982 2980 2979 2979 2980
2964 2968 2971 2975 2978 2982 2986 2989 2992 2995 2997 2999 3001 3002 3003 3003 3004 3004 3004 3004 3003 3002 3000 2998 2996 2994 2992 2991 2990 2988 2982 2980 2977 2976 2975 2975 2973 2973
2956 2960 2963 2967 2970 2974 2978 2981 2984 2987 2989 2991 2993 2995 2996 2996 2997 2997 2997 2997 2996 2996 2995 2993 2991 2989 2987 2986 2985 2983 2981 2975 2972 2970 2969 2968 2968 2969
2948 2951 2954 2958 2962 2966 2969 2973 2976 2978 2980 2982 2984 2985 2986 2987 2988 2988 2989 2988 2988 2988 2988 2987 2984 2983 2981 2978 2977 2976 2975 2973 2970 2967 2964 2961 2961 2961
2938 2942 2946 2949 2953 2956 2960 2963 2965 2968 2970 2971 2973 2975 2976 2977 2978 2978 2979 2979 2979 2979 2979 2978 2977 2975 2974 2972 2970 2969 2968 2966 2962 2963 2963 2956 2955 2954